Location: Unspecified
(0.0000°N, 0.0000°E)
Time: 13:32:46
(UTC-04:00)

Hubble Space Telescope - Pass Details

Date: 02 October 2021
Orbit: 535 x 539 km, 28.5° (Epoch: 28 October)

Event Time Altitude Azimuth Distance (km) Brightness Sun altitude
Exits shadow 00:41:47 33° 254° (WSW) 901 1.4 -16.9°
Maximum altitude 00:43:29 70° 329° (NNW) 567 0.7 -16.4°
Drops below altitude 10° 00:47:35 10° 54° (NE) 1,777 4.1 -15.4°
Sets 00:49:50 0° 56° (NE) 2,665 5.2 -14.9°
